GPS BIIF-3

Last updated on Sat Aug 15 2026 00:02:48 GMT+0000 (Coordinated Universal Time)

1 38833U 12053A 26225.65126891 -.00000004 00000+0 00000+0 0 9994 2 38833 53.5924 141.2443 0183949 66.7980 295.1421 2.00568468100592
UTC large
Height (km)
Speed (km/s)
/
Latitude / Longitude
Inclination (degrees)
Orbital Period (minutes)
Azimuth
Elevation
Range (km)
Doppler Factor

Next 0 passes for location: London (51.5072 / 0.1276)

No passes found over London.
GPS BIIF-3